Flag for Germany Past Weather in Limburg an der Lahn, Hesse, Germany — Yesterday and Last 2 Weeks

Now
57 °F

Passing clouds.


Feels Like: 57 °F
Forecast: 60 / 70 °F
Wind: 3 mph from North

Location: Wiesbaden Airport

Current Time: May 28, 2016 at 2:08:13 AM

Latest Report: May 28, 2016 at 12:58 AM


Visibility: N/A

Pressure: 29.95 "Hg

Humidity: 94%

Dew Point: 55 °F

Location of Limburg an der LahnLocation

Past Weather in Limburg an der Lahn — Graph

°F

Limburg an der Lahn Temperature Yesterday

Maximum temperature yesterday: 74 °F (at 4:58 PM)
Minimum temperature yesterday: 57 °F (at 4:58 AM)
Average temperature yesterday: 63 °F

High & Low Weather Summary for the Past Weeks

 TemperatureHumidityPressure
High77 °F (May 22, 2:58 PM)100% (May 26, 6:04 AM)30.15 "Hg (May 26, 6:04 AM)
Low42 °F (May 15, 3:58 AM)32% (May 22, 3:58 PM)29.49 "Hg (May 13, 2:58 AM)
Average56 °F69%29.94 "Hg
* Reported May 13 12:03 AM — May 28 12:58 AM, Limburg an der Lahn, Weather by CustomWeather, © 2016

Note: Actual official high and low records may vary slightly from our data, if they occured in-between our weather recording intervals... More about our weather records

Advertising

Limburg an der Lahn Weather History for the Previous 24 Hours

Scroll right to see more
 ConditionsComfort  
Time TempWeatherWind HumidityBarometerVisibility
12:58 AM
Sat, May 28
57 °FPassing clouds.3 mph94%29.95 "HgN/A
11:58 PM
Fri, May 27
61 °FPassing clouds.1 mph88%29.96 "HgN/A
10:58 PM59 °FPassing clouds.6 mph94%29.98 "HgN/A
9:58 PM61 °FPartly sunny.3 mph94%29.97 "HgN/A
8:58 PM60 °FPartly sunny.3 mph90%29.97 "HgN/A
8:00 PM61 °FPartly sunny.6 mph88%29.97 "HgN/A
7:58 PM61 °FLight rain. Partly sunny.6 mph83%29.97 "HgN/A
7:03 PM63 °FThunderstorms. Mostly cloudy.18 mph77%29.96 "HgN/A
6:59 PM64 °FThunderstorms. Overcast.17 mph73%29.96 "HgN/A
5:58 PM72 °FPartly sunny.7 mph65%29.93 "HgN/A
4:58 PM74 °FScattered clouds.3 mph56%29.94 "HgN/A
3:58 PM72 °FPassing clouds.3 mph60%29.94 "HgN/A
2:58 PM70 °FScattered clouds.3 mph64%29.96 "HgN/A
1:58 PM70 °FPartly sunny.1 mph64%29.96 "HgN/A
12:58 PM68 °FPartly sunny.7 mph69%29.96 "HgN/A
11:58 AM66 °FSunny.7 mph68%29.98 "HgN/A
11:04 AM63 °FPartly sunny.9 mph77%29.99 "Hg1 mi
9:58 AM61 °FMostly cloudy.7 mph83%29.99 "Hg1 mi
9:03 AM61 °FMostly cloudy.1 mph83%30.00 "Hg1 mi
7:58 AM59 °FOvercast.5 mph85%29.99 "HgN/A
6:58 AM58 °FPartly sunny.5 mph86%29.96 "HgN/A
5:58 AM57 °FPartly cloudy.7 mph88%29.97 "HgN/A
4:58 AM57 °FRain. Fog.6 mph94%29.98 "Hg4 mi
4:03 AM59 °FClear.5 mph77%29.97 "HgN/A
3:58 AM60 °FLight rain. Passing clouds.7 mph76%29.96 "HgN/A
2:58 AM64 °FPassing clouds.8 mph56%29.93 "HgN/A
Weather by CustomWeather, © 2016

See weather overviewHow to use our weather pages